This is the latest recevied weather packets stored in our database for station/object HB9HFD-13. If no packets are shown the sender has not sent any weather packets the latest 10 day(s).
| Time | Temp. | Humidity | Pressure | Rain* | Wind** | Luminosity | Snow |
|---|---|---|---|---|---|---|---|
| 1788006462 | 25° C | 48% | 1015.7 hPa | 0 mm | - | - | - |
| 1788006162 | 25° C | 48% | 1015.7 hPa | 0 mm | - | - | - |
| 1788005862 | 25.56° C | 44% | 1015.8 hPa | 0 mm | - | - | - |
| 1788005562 | 26.11° C | 45% | 1015.8 hPa | 0 mm | - | - | - |
| 1788005261 | 26.11° C | 45% | 1015.8 hPa | 0 mm | - | - | - |
| 1788004961 | 25.56° C | 46% | 1015.7 hPa | 0 mm | - | - | - |
| 1788004661 | 25° C | 47% | 1015.8 hPa | 0 mm | - | - | - |
| 1788004361 | 25° C | 47% | 1015.9 hPa | 0 mm | - | - | - |
| 1788004060 | 25° C | 45% | 1016 hPa | 0 mm | - | - | - |
| 1788003760 | 25° C | 50% | 1015.9 hPa | 0 mm | - | - | - |
| 1788003460 | 24.44° C | 47% | 1015.9 hPa | 0 mm | - | - | - |
| 1788003160 | 24.44° C | 46% | 1016.1 hPa | 0 mm | - | - | - |
| 1788002859 | 25° C | 45% | 1016 hPa | 0 mm | - | - | - |
| 1788002559 | 25.56° C | 45% | 1015.9 hPa | 0 mm | - | - | - |
| 1788002259 | 25° C | 48% | 1016 hPa | 0 mm | - | - | - |
| 1788001958 | 24.44° C | 48% | 1016.1 hPa | 0 mm | - | - | - |
| 1788001658 | 23.89° C | 48% | 1016.2 hPa | 0 mm | - | - | - |
| 1788001358 | 23.89° C | 46% | 1016.2 hPa | 0 mm | - | - | - |
| 1788001058 | 24.44° C | 48% | 1016.1 hPa | 0 mm | - | - | - |
| 1788000757 | 24.44° C | 46% | 1016.2 hPa | 0 mm | - | - | - |
| 1788000457 | 24.44° C | 47% | 1016.2 hPa | 0 mm | - | - | - |
| 1788000157 | 23.89° C | 48% | 1016.3 hPa | 0 mm | - | - | - |
| 1787999857 | 23.89° C | 49% | 1016.4 hPa | 0 mm | - | - | - |
| 1787999556 | 23.89° C | 46% | 1016.4 hPa | 0 mm | - | - | - |
| 1787999256 | 23.89° C | 49% | 1016.3 hPa | 0 mm | - | - | - |
* Rain latest hour (hover to see other rain measurements)
** Current wind speed in m/s (hover to see current wind gust speed)